Location: Bonneuil
(46.1010°N, 2.9693°E)
Time: 10:57:30
(UTC+00:00)

Cosmos 1437 - Pass Details

Date: 09 April 2020
Orbit: 373 x 376 km, 81.2° (Epoch: 05 June)

Event Time Altitude Azimuth Distance (km) Brightness Sun altitude
Rises 19:07:21 0° 344° (NNW) 2,257 7.0 -7.4°
Reaches altitude 10° 19:09:23 10° 339° (NNW) 1,398 6.0 -7.7°
Maximum altitude 19:12:20 51° 263° (W) 484 3.5 -8.2°
Drops below altitude 10° 19:15:15 10° 186° (S) 1,380 5.2 -8.7°
Sets 19:17:15 0° 181° (S) 2,224 6.2 -9.0°
